| time (UTC) | temp C | wind direction | speed KPH | gust KPH | rain 1hr cm | rain 24hr cm | rain mn cm | humidity % | barometer mb |
| 20260509053704 | 22 | 50 | 12.9 | 33.8 | 0.00 | 0.00 | 0.00 | 72 | 1011.4 |
| 20260509052704 | 23 | 60 | 11.3 | 33.8 | 0.00 | 0.00 | 0.00 | 72 | 1011.6 |
| 20260509051704 | 23 | 50 | 11.3 | 33.8 | 0.00 | 0.00 | 0.00 | 70 | 1011.6 |
| 20260509050704 | 23 | 50 | 8.0 | 38.6 | 0.00 | 0.00 | 0.00 | 71 | 1011.6 |
| 20260509045703 | 23 | 60 | 11.3 | 38.6 | 0.00 | 0.00 | 0.00 | 70 | 1011.8 |
| 20260509044704 | 23 | 50 | 9.7 | 38.6 | 0.00 | 0.00 | 0.00 | 70 | 1012.0 |
| 20260509043703 | 22 | 60 | 11.3 | 38.6 | 0.00 | 0.00 | 0.00 | 73 | 1012.1 |
| 20260509042704 | 22 | 50 | 11.3 | 38.6 | 0.00 | 0.00 | 0.00 | 73 | 1012.4 |
| 20260509041703 | 22 | 40 | 14.5 | 38.6 | 0.00 | 0.00 | 0.00 | 73 | 1012.4 |
| 20260509040703 | 22 | 30 | 9.7 | 37.0 | 0.00 | 0.00 | 0.00 | 72 | 1012.5 |
| 20260509035704 | 22 | 50 | 11.3 | 37.0 | 0.00 | 0.00 | 0.00 | 73 | 1012.6 |
| 20260509034703 | 22 | 60 | 14.5 | 37.0 | 0.00 | 0.00 | 0.00 | 73 | 1012.9 |
| 20260509033703 | 22 | 60 | 14.5 | 37.0 | 0.00 | 0.00 | 0.00 | 73 | 1012.8 |
| 20260509032703 | 22 | 60 | 16.1 | 37.0 | 0.00 | 0.00 | 0.00 | 72 | 1012.9 |
| 20260509031704 | 22 | 60 | 9.7 | 37.0 | 0.00 | 0.00 | 0.00 | 77 | 1012.9 |
| 20260509030703 | 21 | 40 | 11.3 | 41.8 | 0.00 | 0.00 | 0.00 | 79 | 1013.0 |
| 20260509025704 | 21 | 30 | 12.9 | 41.8 | 0.00 | 0.00 | 0.00 | 80 | 1013.3 |
| 20260509024703 | 21 | 30 | 11.3 | 41.8 | 0.00 | 0.00 | 0.00 | 79 | 1013.5 |
| 20260509023704 | 21 | 30 | 11.3 | 41.8 | 0.00 | 0.00 | 0.00 | 79 | 1013.5 |
| 20260509022704 | 21 | 40 | 11.3 | 41.8 | 0.00 | 0.00 | 0.00 | 80 | 1013.5 |
| 20260509021704 | 21 | 30 | 14.5 | 41.8 | 0.00 | 0.00 | 0.00 | 80 | 1013.6 |
| 20260509020703 | 21 | 30 | 14.5 | 25.7 | 0.00 | 0.00 | 0.00 | 81 | 1013.7 |
| 20260509015704 | 21 | 20 | 9.7 | 25.7 | 0.00 | 0.00 | 0.00 | 82 | 1013.7 |
| 20260509014704 | 21 | 30 | 9.7 | 25.7 | 0.00 | 0.00 | 0.00 | 84 | 1013.6 |
| 20260509013703 | 21 | 30 | 11.3 | 25.7 | 0.00 | 0.00 | 0.00 | 83 | 1013.5 |
| 20260509012703 | 20 | 30 | 8.0 | 25.7 | 0.00 | 0.00 | 0.00 | 84 | 1013.5 |
| 20260509011704 | 20 | 40 | 12.9 | 25.7 | 0.00 | 0.00 | 0.00 | 84 | 1013.5 |
| 20260509010704 | 20 | 40 | 11.3 | 24.1 | 0.00 | 0.00 | 0.00 | 85 | 1013.5 |
| 20260509005703 | 20 | 40 | 11.3 | 24.1 | 0.00 | 0.00 | 0.00 | 85 | 1013.5 |
| 20260509004703 | 20 | 20 | 9.7 | 24.1 | 0.00 | 0.00 | 0.00 | 86 | 1013.5 |
| 20260509003703 | 20 | 30 | 9.7 | 24.1 | 0.00 | 0.00 | 0.00 | 86 | 1013.4 |
| 20260509002704 | 20 | 20 | 8.0 | 24.1 | 0.00 | 0.00 | 0.00 | 87 | 1013.3 |
| 20260509001703 | 20 | 30 | 11.3 | 24.1 | 0.00 | 0.00 | 0.00 | 87 | 1013.3 |
| 20260509000704 | 20 | 20 | 4.8 | 29.0 | 0.00 | 0.00 | 0.00 | 88 | 1013.3 |
| 20260508235704 | 20 | 50 | 4.8 | 29.0 | 0.00 | 0.00 | 0.00 | 88 | 1013.2 |
| 20260508234703 | 20 | 50 | 9.7 | 29.0 | 0.00 | 0.00 | 0.00 | 88 | 1013.1 |
| 20260508233703 | 20 | 40 | 8.0 | 29.0 | 0.00 | 0.00 | 0.00 | 89 | 1013.1 |
| 20260508232703 | 20 | 40 | 9.7 | 29.0 | 0.00 | 0.00 | 0.00 | 88 | 1013.1 |
| 20260508231703 | 20 | 50 | 6.4 | 29.0 | 0.00 | 0.00 | 0.00 | 89 | 1012.9 |
| 20260508230703 | 20 | 50 | 6.4 | 33.8 | 0.00 | 0.00 | 0.00 | 89 | 1012.8 |
| 20260508225703 | 19 | 50 | 8.0 | 33.8 | 0.00 | 0.00 | 0.00 | 90 | 1012.7 |
| 20260508224703 | 19 | 40 | 9.7 | 33.8 | 0.00 | 0.00 | 0.00 | 89 | 1012.9 |
| 20260508223703 | 20 | 40 | 9.7 | 33.8 | 0.00 | 0.00 | 0.00 | 88 | 1012.6 |
| 20260508222704 | 20 | 20 | 9.7 | 33.8 | 0.00 | 0.00 | 0.00 | 85 | 1012.8 |
| 20260508221704 | 20 | 30 | 11.3 | 33.8 | 0.00 | 0.00 | 0.00 | 84 | 1012.7 |
| 20260508220703 | 20 | 30 | 9.7 | 27.4 | 0.00 | 0.00 | 0.00 | 82 | 1012.5 |
| 20260508215703 | 20 | 40 | 11.3 | 27.4 | 0.00 | 0.00 | 0.00 | 82 | 1012.5 |
| 20260508214703 | 20 | 40 | 12.9 | 27.4 | 0.00 | 0.00 | 0.00 | 81 | 1012.4 |
| 20260508213703 | 20 | 30 | 11.3 | 27.4 | 0.00 | 0.00 | 0.00 | 82 | 1012.5 |
| 20260508212703 | 20 | 40 | 9.7 | 27.4 | 0.00 | 0.00 | 0.00 | 81 | 1012.1 |
| 20260508211704 | 20 | 40 | 11.3 | 27.4 | 0.00 | 0.00 | 0.00 | 82 | 1012.0 |
| 20260508210703 | 20 | 30 | 12.9 | 30.6 | 0.00 | 0.00 | 0.00 | 81 | 1012.0 |
| 20260508205703 | 20 | 30 | 11.3 | 30.6 | 0.00 | 0.00 | 0.00 | 81 | 1011.9 |
| 20260508204703 | 20 | 20 | 9.7 | 30.6 | 0.00 | 0.00 | 0.00 | 82 | 1011.7 |
| 20260508203703 | 20 | 30 | 9.7 | 30.6 | 0.00 | 0.00 | 0.00 | 81 | 1011.5 |
| 20260508202703 | 20 | 30 | 11.3 | 30.6 | 0.00 | 0.00 | 0.00 | 83 | 1011.5 |
| 20260508201703 | 20 | 20 | 8.0 | 30.6 | 0.00 | 0.00 | 0.00 | 83 | 1011.6 |
| 20260508200705 | 20 | 20 | 9.7 | 27.4 | 0.00 | 0.00 | 0.00 | 84 | 1011.3 |
| 20260508195703 | 20 | 40 | 11.3 | 27.4 | 0.00 | 0.00 | 0.00 | 84 | 1011.1 |
| 20260508194703 | 20 | 30 | 12.9 | 27.4 | 0.00 | 0.00 | 0.00 | 84 | 1011.2 |
| 20260508193703 | 20 | 30 | 8.0 | 27.4 | 0.00 | 0.00 | 0.00 | 85 | 1011.4 |
| 20260508192703 | 20 | 20 | 9.7 | 27.4 | 0.00 | 0.00 | 0.00 | 85 | 1011.2 |
| 20260508191704 | 20 | 30 | 9.7 | 27.4 | 0.00 | 0.00 | 0.00 | 85 | 1011.1 |
| 20260508190703 | 20 | 30 | 9.7 | 24.1 | 0.00 | 0.00 | 0.00 | 84 | 1010.9 |
| 20260508185703 | 20 | 40 | 11.3 | 24.1 | 0.00 | 0.00 | 0.00 | 84 | 1011.0 |
| 20260508184703 | 20 | 40 | 14.5 | 24.1 | 0.00 | 0.00 | 0.00 | 85 | 1011.1 |
| 20260508183703 | 20 | 30 | 11.3 | 24.1 | 0.00 | 0.00 | 0.00 | 85 | 1011.2 |
| 20260508182703 | 20 | 30 | 11.3 | 24.1 | 0.00 | 0.00 | 0.00 | 85 | 1011.2 |
| 20260508181703 | 20 | 30 | 11.3 | 24.1 | 0.00 | 0.00 | 0.00 | 84 | 1011.5 |
| 20260508180704 | 20 | 20 | 11.3 | 32.2 | 0.00 | 0.00 | 0.00 | 85 | 1011.5 |
| 20260508175703 | 20 | 30 | 8.0 | 32.2 | 0.00 | 0.00 | 0.00 | 85 | 1011.4 |
| 20260508174704 | 20 | 40 | 9.7 | 32.2 | 0.00 | 0.00 | 0.00 | 85 | 1011.4 |
| 20260508173703 | 20 | 30 | 8.0 | 32.2 | 0.00 | 0.00 | 0.00 | 85 | 1011.5 |
| 20260508172703 | 20 | 30 | 6.4 | 32.2 | 0.00 | 0.00 | 0.00 | 85 | 1011.7 |
| 20260508171703 | 20 | 30 | 9.7 | 32.2 | 0.00 | 0.00 | 0.00 | 85 | 1011.8 |
| 20260508170704 | 20 | 30 | 9.7 | 33.8 | 0.00 | 0.00 | 0.00 | 84 | 1011.8 |
| 20260508165703 | 20 | 40 | 9.7 | 33.8 | 0.00 | 0.00 | 0.00 | 84 | 1011.8 |
| 20260508164704 | 20 | 40 | 11.3 | 33.8 | 0.00 | 0.00 | 0.00 | 85 | 1012.0 |
| 20260508163704 | 20 | 30 | 12.9 | 33.8 | 0.00 | 0.00 | 0.00 | 85 | 1012.1 |
| 20260508162703 | 20 | 30 | 9.7 | 33.8 | 0.00 | 0.00 | 0.00 | 85 | 1012.2 |
| 20260508161704 | 20 | 40 | 11.3 | 33.8 | 0.00 | 0.00 | 0.00 | 85 | 1012.2 |
| 20260508160704 | 20 | 40 | 12.9 | 29.0 | 0.00 | 0.00 | 0.00 | 85 | 1012.2 |
| 20260508155703 | 20 | 40 | 12.9 | 29.0 | 0.00 | 0.00 | 0.00 | 85 | 1012.4 |
| 20260508154704 | 20 | 30 | 12.9 | 29.0 | 0.00 | 0.00 | 0.00 | 84 | 1012.3 |
| 20260508153703 | 20 | 40 | 14.5 | 29.0 | 0.00 | 0.00 | 0.00 | 84 | 1012.3 |
| 20260508152703 | 20 | 30 | 12.9 | 29.0 | 0.00 | 0.00 | 0.00 | 84 | 1012.4 |
| 20260508151704 | 20 | 40 | 12.9 | 29.0 | 0.00 | 0.00 | 0.00 | 85 | 1012.3 |
| 20260508150704 | 20 | 20 | 9.7 | 30.6 | 0.00 | 0.00 | 0.00 | 84 | 1012.3 |
| 20260508145704 | 20 | 20 | 9.7 | 30.6 | 0.00 | 0.00 | 0.00 | 84 | 1012.3 |
| 20260508144703 | 20 | 30 | 11.3 | 30.6 | 0.00 | 0.00 | 0.00 | 84 | 1012.4 |
| 20260508143704 | 20 | 30 | 8.0 | 30.6 | 0.00 | 0.00 | 0.00 | 84 | 1012.2 |
| 20260508142704 | 21 | 30 | 12.9 | 30.6 | 0.00 | 0.00 | 0.00 | 84 | 1012.3 |
| 20260508141704 | 21 | 20 | 11.3 | 30.6 | 0.00 | 0.00 | 0.00 | 84 | 1012.2 |
| 20260508140703 | 21 | 30 | 8.0 | 32.2 | 0.00 | 0.00 | 0.00 | 83 | 1012.2 |
| 20260508135704 | 21 | 20 | 9.7 | 32.2 | 0.00 | 0.00 | 0.00 | 83 | 1012.3 |
| 20260508134704 | 21 | 20 | 9.7 | 32.2 | 0.00 | 0.00 | 0.00 | 83 | 1012.1 |
| 20260508133703 | 21 | 30 | 11.3 | 32.2 | 0.00 | 0.00 | 0.00 | 83 | 1012.0 |
| 20260508132704 | 21 | 40 | 8.0 | 32.2 | 0.00 | 0.00 | 0.00 | 83 | 1012.0 |
| 20260508131703 | 21 | 40 | 12.9 | 32.2 | 0.00 | 0.00 | 0.00 | 82 | 1011.9 |
| 20260508130703 | 21 | 40 | 9.7 | 38.6 | 0.00 | 0.00 | 0.00 | 82 | 1011.8 |
| 20260508125703 | 21 | 40 | 9.7 | 38.6 | 0.00 | 0.00 | 0.00 | 83 | 1011.7 |
| 20260508124704 | 21 | 20 | 11.3 | 38.6 | 0.00 | 0.00 | 0.00 | 82 | 1011.7 |
| 20260508123703 | 21 | 30 | 9.7 | 38.6 | 0.00 | 0.00 | 0.00 | 82 | 1011.7 |
| 20260508122704 | 21 | 40 | 11.3 | 38.6 | 0.00 | 0.00 | 0.00 | 82 | 1011.5 |
| 20260508121704 | 21 | 40 | 9.7 | 38.6 | 0.00 | 0.00 | 0.00 | 83 | 1011.4 |
| 20260508120703 | 21 | 30 | 12.9 | 32.2 | 0.00 | 0.00 | 0.00 | 83 | 1011.4 |
| 20260508115703 | 21 | 40 | 12.9 | 32.2 | 0.00 | 0.00 | 0.00 | 83 | 1011.4 |
| 20260508114704 | 21 | 30 | 14.5 | 32.2 | 0.00 | 0.00 | 0.00 | 83 | 1011.4 |
| 20260508113704 | 21 | 40 | 14.5 | 32.2 | 0.00 | 0.00 | 0.00 | 83 | 1011.4 |
| 20260508112704 | 21 | 30 | 14.5 | 32.2 | 0.00 | 0.00 | 0.00 | 83 | 1011.4 |
| 20260508111704 | 21 | 40 | 12.9 | 32.2 | 0.00 | 0.00 | 0.00 | 83 | 1011.4 |
| 20260508110704 | 21 | 40 | 14.5 | 38.6 | 0.00 | 0.00 | 0.00 | 84 | 1011.1 |
| 20260508105704 | 21 | 20 | 12.9 | 38.6 | 0.00 | 0.00 | 0.00 | 84 | 1011.1 |
| 20260508104704 | 22 | 40 | 11.3 | 38.6 | 0.00 | 0.00 | 0.00 | 83 | 1010.9 |
| 20260508103703 | 22 | 30 | 12.9 | 38.6 | 0.00 | 0.00 | 0.00 | 84 | 1010.9 |
| 20260508102704 | 22 | 20 | 12.9 | 38.6 | 0.00 | 0.00 | 0.00 | 84 | 1010.7 |
| 20260508101703 | 22 | 30 | 14.5 | 38.6 | 0.00 | 0.00 | 0.00 | 83 | 1010.6 |
| 20260508100703 | 22 | 20 | 14.5 | 37.0 | 0.00 | 0.00 | 0.00 | 83 | 1010.6 |
| 20260508095704 | 22 | 30 | 14.5 | 37.0 | 0.00 | 0.00 | 0.00 | 83 | 1010.7 |
| 20260508094704 | 22 | 30 | 14.5 | 37.0 | 0.00 | 0.00 | 0.00 | 83 | 1010.6 |
| 20260508093703 | 22 | 30 | 12.9 | 37.0 | 0.00 | 0.00 | 0.00 | 83 | 1010.4 |
| 20260508092703 | 22 | 30 | 14.5 | 37.0 | 0.00 | 0.00 | 0.00 | 82 | 1010.3 |
| 20260508091703 | 22 | 30 | 11.3 | 37.0 | 0.00 | 0.00 | 0.00 | 82 | 1010.3 |
| 20260508090703 | 22 | 30 | 12.9 | 33.8 | 0.00 | 0.00 | 0.00 | 81 | 1010.3 |
| 20260508085704 | 23 | 40 | 12.9 | 33.8 | 0.00 | 0.00 | 0.00 | 81 | 1010.4 |
| 20260508084704 | 23 | 30 | 16.1 | 33.8 | 0.00 | 0.00 | 0.00 | 80 | 1010.4 |
| 20260508083703 | 23 | 10 | 12.9 | 33.8 | 0.00 | 0.00 | 0.00 | 80 | 1010.2 |
| 20260508082704 | 23 | 30 | 11.3 | 33.8 | 0.00 | 0.00 | 0.00 | 81 | 1010.0 |
| 20260508081703 | 23 | 30 | 9.7 | 33.8 | 0.00 | 0.00 | 0.00 | 80 | 1009.8 |
| 20260508080704 | 23 | 30 | 11.3 | 37.0 | 0.00 | 0.00 | 0.00 | 80 | 1009.8 |
| 20260508075704 | 23 | 40 | 12.9 | 37.0 | 0.00 | 0.00 | 0.00 | 79 | 1009.8 |
| 20260508074704 | 23 | 30 | 12.9 | 37.0 | 0.00 | 0.00 | 0.00 | 80 | 1009.8 |
| 20260508073703 | 23 | 40 | 14.5 | 37.0 | 0.00 | 0.00 | 0.00 | 80 | 1009.8 |
| 20260508072703 | 23 | 30 | 12.9 | 37.0 | 0.00 | 0.00 | 0.00 | 79 | 1009.8 |
| 20260508071703 | 24 | 30 | 12.9 | 37.0 | 0.00 | 0.00 | 0.00 | 77 | 1009.8 |
| 20260508070703 | 25 | 30 | 17.7 | 30.6 | 0.00 | 0.00 | 0.00 | 75 | 1009.7 |
| 20260508065704 | 25 | 20 | 12.9 | 30.6 | 0.00 | 0.00 | 0.00 | 77 | 1009.7 |
| 20260508064703 | 25 | 10 | 14.5 | 30.6 | 0.00 | 0.00 | 0.00 | 76 | 1009.6 |
| 20260508063703 | 25 | 20 | 14.5 | 30.6 | 0.00 | 0.00 | 0.00 | 74 | 1009.7 |
| 20260508062703 | 25 | 20 | 14.5 | 30.6 | 0.00 | 0.00 | 0.00 | 74 | 1009.8 |
| 20260508061704 | 25 | 30 | 12.9 | 30.6 | 0.00 | 0.00 | 0.00 | 75 | 1009.8 |
| 20260508060704 | 25 | 30 | 12.9 | 38.6 | 0.00 | 0.00 | 0.00 | 74 | 1009.8 |
| 20260508055704 | 26 | 30 | 14.5 | 38.6 | 0.00 | 0.00 | 0.00 | 75 | 1009.9 |
| 20260508054705 | 25 | 30 | 14.5 | 38.6 | 0.00 | 0.00 | 0.00 | 76 | 1009.8 |